Reading Regional Carl A Spaatz Field
KRDG : now visible

Airfield :











YOU CAN JOIN US ON...

 
LOGIN :

Register | Disclaimer

   EN    FR    IT 

 









Legend :    VFR   Marginal VFR   IFR   Intensive IFR   Very Intensive IFR
Visi :
Ceiling :
>= 8 km
>= 3000ft
5 to 8 km
1000 to 3000 ft
1500m to 5 km
500 to 1000 ft
800 to 1500m
200 to 500 ft
< 800m
< 200 ft
Symbols :   Thunderstorms  Fog  Heavy snow  Heavy precipitations  Wind > 20 kt






- Airport Elevation : 344 ft
- IATA code : RDG


KRDG - Reading Regional Carl A Spaatz Field

CURRENT METAR :
  • 241454Z 28008KT 10SM CLR 19/11 A3008 RMK AO2 SLP192 T01940106 51004

EXPIRED METARs :
  • 241354Z 28005KT 10SM CLR 17/11 A3008 RMK AO2 SLP192 T01720111
  • 241254Z VRB03KT 10SM CLR 15/11 A3007 RMK AO2 SLP188 T01500106

TAF KRDG
Valid from the 24 at 12:00 until the 25 at 12:00 UTC


241120Z 2412/2512 28007KT P6SM SKC
FM241600 28009KT P6SM FEW040
FM250000 VRB02KT P6SM SKC
KZNY FIR / North America



MET'MAP, your aeronautical weather chart ! - Copyright ORBIFLY December 2007 - Disclaimer

ORBIFLY MET'MAP TEAM :

Programming & Development : Alexandra Zaïnal
Concept & original design : Baudouin d'Aumeries
Assistance for programming : Marc-Olivier Méhu
Technical & hardware support : Manuel Goepfert

Contact : metmap@orbifly.com




SOURCES & CREDITS :

   NOAA       Earth
Advisory